SKW1489 KSAN-KLAX

Flight info

Callsign SKW1489
Flight time 0h 36m
Altitude 22000
Route CWARD2 SLI
Aircraft E275/M-V/N

Departure

Time 2026-04-26 03:24
Airport San Diego International Airport (KSAN)

Arrival

Time 2026-04-26 04:01
Airport Los Angeles International Airport (KLAX)
Time Latitude Longitude Altitude Speed Heading
2026-04-26 02:37 32.73338 -117.20186 23 ft 0 kts 83°
2026-04-26 03:09 32.73338 -117.20187 24 ft 0 kts 83°
2026-04-26 03:09 32.73337 -117.20193 23 ft 1 kts 81°
2026-04-26 03:10 32.73335 -117.20207 23 ft 2 kts 82°
2026-04-26 03:10 32.73332 -117.20231 23 ft 3 kts 82°
2026-04-26 03:10 32.73327 -117.20256 26 ft 3 kts 46°
2026-04-26 03:10 32.73322 -117.20262 25 ft 0 kts 359°
2026-04-26 03:15 32.73325 -117.20263 25 ft 2 kts 350°
2026-04-26 03:15 32.73351 -117.20272 26 ft 7 kts 345°
2026-04-26 03:15 32.73414 -117.20269 23 ft 11 kts 13°
2026-04-26 03:15 32.73471 -117.20247 24 ft 6 kts 31°
2026-04-26 03:16 32.73494 -117.20221 25 ft 11 kts 51°
2026-04-26 03:16 32.73529 -117.20111 28 ft 14 kts 99°
2026-04-26 03:16 32.73509 -117.20023 27 ft 12 kts 106°
2026-04-26 03:16 32.73476 -117.19889 27 ft 21 kts 105°
2026-04-26 03:17 32.73430 -117.19699 27 ft 23 kts 105°
2026-04-26 03:17 32.73381 -117.19499 28 ft 37 kts 106°
2026-04-26 03:17 32.73336 -117.19312 24 ft 14 kts 107°
2026-04-26 03:17 32.73307 -117.19191 25 ft 13 kts 106°
2026-04-26 03:18 32.73284 -117.19096 28 ft 10 kts 106°
2026-04-26 03:18 32.73264 -117.19018 27 ft 11 kts 106°
2026-04-26 03:18 32.73239 -117.18921 27 ft 13 kts 111°
2026-04-26 03:18 32.73217 -117.18818 28 ft 13 kts 105°
2026-04-26 03:19 32.73190 -117.18707 32 ft 15 kts 106°
2026-04-26 03:19 32.73159 -117.18577 29 ft 18 kts 104°
2026-04-26 03:19 32.73119 -117.18421 29 ft 21 kts 108°
2026-04-26 03:19 32.73079 -117.18253 29 ft 20 kts 106°
2026-04-26 03:20 32.73040 -117.18089 26 ft 21 kts 106°
2026-04-26 03:20 32.73001 -117.17926 28 ft 21 kts 106°
2026-04-26 03:20 32.72957 -117.17763 24 ft 17 kts 106°
2026-04-26 03:20 32.72951 -117.17692 25 ft 0 kts 78°
2026-04-26 03:22 32.72958 -117.17665 27 ft 10 kts 71°
2026-04-26 03:22 32.73027 -117.17615 26 ft 16 kts 319°
2026-04-26 03:23 32.73070 -117.17795 25 ft 43 kts 286°
2026-04-26 03:23 32.73210 -117.18369 28 ft 101 kts 286°
2026-04-26 03:23 32.73463 -117.19359 31 ft 143 kts 288°
2026-04-26 03:23 32.73781 -117.20485 101 ft 147 kts 289°
2026-04-26 03:24 32.74154 -117.21604 172 ft 146 kts 296°
2026-04-26 03:24 32.74625 -117.22646 444 ft 142 kts 298°
2026-04-26 03:24 32.75100 -117.23631 1018 ft 139 kts 298°
2026-04-26 03:24 32.75726 -117.24582 1312 ft 150 kts 311°
2026-04-26 03:25 32.76416 -117.25470 1862 ft 141 kts 304°
2026-04-26 03:25 32.76986 -117.26383 2346 ft 137 kts 303°
2026-04-26 03:25 32.77552 -117.27330 2598 ft 147 kts 302°
2026-04-26 03:25 32.78124 -117.28345 3026 ft 146 kts 302°
2026-04-26 03:26 32.78854 -117.29162 3363 ft 157 kts 348°
2026-04-26 03:26 32.80023 -117.28929 3381 ft 183 kts 17°
2026-04-26 03:26 32.81355 -117.28411 3240 ft 222 kts 15°
2026-04-26 03:26 32.82928 -117.27852 3437 ft 243 kts 14°
2026-04-26 03:27 32.84582 -117.27305 4007 ft 250 kts 14°
2026-04-26 03:27 32.86279 -117.26771 4611 ft 254 kts 13°
2026-04-26 03:27 32.88000 -117.26245 5231 ft 257 kts 13°
2026-04-26 03:27 32.89736 -117.25724 5867 ft 257 kts 12°
2026-04-26 03:28 32.91456 -117.25209 6487 ft 258 kts 12°
2026-04-26 03:28 32.93203 -117.24685 7046 ft 260 kts 12°
2026-04-26 03:28 32.94962 -117.24151 7577 ft 262 kts 12°
2026-04-26 03:28 32.96751 -117.23700 8069 ft 263 kts 356°
2026-04-26 03:29 32.98490 -117.24197 8402 ft 258 kts 323°
2026-04-26 03:29 32.99636 -117.25759 8813 ft 252 kts 288°
2026-04-26 03:29 32.99819 -117.27795 9333 ft 248 kts 265°
2026-04-26 03:29 32.99603 -117.29772 9703 ft 237 kts 263°
2026-04-26 03:30 32.99372 -117.31715 9854 ft 242 kts 263°
2026-04-26 03:30 32.99336 -117.33739 9937 ft 244 kts 280°
2026-04-26 03:30 32.99719 -117.35695 9958 ft 247 kts 283°
2026-04-26 03:30 33.00163 -117.37671 9965 ft 246 kts 284°
2026-04-26 03:31 33.00604 -117.39639 9975 ft 246 kts 283°
2026-04-26 03:31 33.01024 -117.41617 9970 ft 245 kts 283°
2026-04-26 03:31 33.01419 -117.43600 9969 ft 245 kts 282°
2026-04-26 03:31 33.01792 -117.45587 9970 ft 245 kts 281°
2026-04-26 03:32 33.02127 -117.47556 9966 ft 245 kts 277°
2026-04-26 03:32 33.02389 -117.49554 9969 ft 243 kts 276°
2026-04-26 03:32 33.02634 -117.51550 9970 ft 243 kts 276°
2026-04-26 03:32 33.02902 -117.53541 9975 ft 244 kts 277°
2026-04-26 03:33 33.03199 -117.55540 9973 ft 245 kts 278°
2026-04-26 03:33 33.03518 -117.57543 9967 ft 246 kts 279°
2026-04-26 03:33 33.03852 -117.59538 9966 ft 245 kts 279°
2026-04-26 03:33 33.04200 -117.61536 9965 ft 246 kts 279°
2026-04-26 03:34 33.04554 -117.63533 9965 ft 246 kts 279°
2026-04-26 03:34 33.04906 -117.65502 9975 ft 246 kts 280°
2026-04-26 03:34 33.05268 -117.67499 9972 ft 246 kts 280°
2026-04-26 03:34 33.05636 -117.69494 9965 ft 246 kts 280°
2026-04-26 03:35 33.06150 -117.71433 9963 ft 248 kts 298°
2026-04-26 03:35 33.07179 -117.73121 9974 ft 253 kts 306°
2026-04-26 03:35 33.08357 -117.74687 9963 ft 254 kts 309°
2026-04-26 03:35 33.09608 -117.76178 9964 ft 254 kts 312°
2026-04-26 03:36 33.10904 -117.77620 9964 ft 255 kts 313°
2026-04-26 03:36 33.12216 -117.79014 9962 ft 255 kts 314°
2026-04-26 03:36 33.13564 -117.80404 9968 ft 256 kts 315°
2026-04-26 03:36 33.14926 -117.81783 9967 ft 256 kts 315°
2026-04-26 03:37 33.16293 -117.83157 9965 ft 256 kts 315°
2026-04-26 03:37 33.17690 -117.84479 9953 ft 258 kts 324°
2026-04-26 03:37 33.19310 -117.85448 9971 ft 262 kts 332°
2026-04-26 03:37 33.21027 -117.86211 9984 ft 265 kts 336°
2026-04-26 03:38 33.22769 -117.86851 9983 ft 265 kts 339°
2026-04-26 03:38 33.24552 -117.87420 9979 ft 265 kts 340°
2026-04-26 03:38 33.26353 -117.87938 9982 ft 266 kts 342°
2026-04-26 03:38 33.28166 -117.88424 9981 ft 267 kts 342°
2026-04-26 03:39 33.29981 -117.88885 9981 ft 266 kts 343°
2026-04-26 03:39 33.31801 -117.89334 9981 ft 267 kts 343°
2026-04-26 03:39 33.33626 -117.89779 9981 ft 267 kts 343°
2026-04-26 03:39 33.35443 -117.90220 9983 ft 266 kts 342°
2026-04-26 03:40 33.37226 -117.90711 9984 ft 266 kts 341°
2026-04-26 03:40 33.39018 -117.91266 9985 ft 265 kts 339°
2026-04-26 03:40 33.40812 -117.91811 9987 ft 266 kts 341°
2026-04-26 03:40 33.42596 -117.92402 9995 ft 266 kts 336°
2026-04-26 03:41 33.44351 -117.93119 9994 ft 266 kts 337°
2026-04-26 03:41 33.46130 -117.93741 9991 ft 267 kts 339°
2026-04-26 03:41 33.47913 -117.94353 9994 ft 266 kts 337°
2026-04-26 03:41 33.49674 -117.95031 9992 ft 266 kts 337°
2026-04-26 03:42 33.51447 -117.95677 9990 ft 267 kts 339°
2026-04-26 03:42 33.53228 -117.96298 9990 ft 266 kts 338°
2026-04-26 03:42 33.54972 -117.96948 9991 ft 266 kts 337°
2026-04-26 03:42 33.56745 -117.97607 9885 ft 269 kts 338°
2026-04-26 03:43 33.58553 -117.98250 9394 ft 269 kts 339°
2026-04-26 03:43 33.60332 -117.98889 8940 ft 265 kts 338°
2026-04-26 03:43 33.62086 -117.99545 8471 ft 264 kts 338°
2026-04-26 03:43 33.63836 -118.00186 8016 ft 262 kts 339°
2026-04-26 03:44 33.65584 -118.00813 7565 ft 261 kts 339°
2026-04-26 03:44 33.66734 -118.01232 7259 ft 259 kts 339°
2026-04-26 03:44 33.69010 -118.02069 6679 ft 256 kts 339°
2026-04-26 03:44 33.70159 -118.02491 6382 ft 255 kts 340°
2026-04-26 03:45 33.72409 -118.03307 5759 ft 253 kts 340°
2026-04-26 03:45 33.73529 -118.03704 5452 ft 252 kts 340°
2026-04-26 03:45 33.75198 -118.04325 4959 ft 251 kts 339°
2026-04-26 03:45 33.76760 -118.05177 4494 ft 244 kts 317°
2026-04-26 03:46 33.78112 -118.06405 4024 ft 244 kts 337°
2026-04-26 03:46 33.79775 -118.06539 3765 ft 246 kts 19°
2026-04-26 03:46 33.81151 -118.05315 3686 ft 252 kts 52°
2026-04-26 03:47 33.83411 -118.02175 3585 ft 250 kts 19°
2026-04-26 03:47 33.85085 -118.01907 3603 ft 242 kts 342°
2026-04-26 03:47 33.86493 -118.02902 3606 ft 238 kts 305°
2026-04-26 03:47 33.87350 -118.04590 3604 ft 236 kts 294°
2026-04-26 03:48 33.87663 -118.06483 3591 ft 233 kts 257°
2026-04-26 03:48 33.86893 -118.08146 3555 ft 233 kts 218°
2026-04-26 03:48 33.85363 -118.08799 3554 ft 241 kts 178°
2026-04-26 03:48 33.83776 -118.08121 3549 ft 251 kts 140°
2026-04-26 03:49 33.82823 -118.06363 3558 ft 258 kts 103°
2026-04-26 03:49 33.82775 -118.04225 3560 ft 258 kts 85°
2026-04-26 03:49 33.82976 -118.02099 3562 ft 256 kts 83°
2026-04-26 03:49 33.83222 -117.99983 3588 ft 258 kts 82°
2026-04-26 03:50 33.83483 -117.97855 3589 ft 258 kts 82°
2026-04-26 03:50 33.83753 -117.95727 3591 ft 256 kts 82°
2026-04-26 03:50 33.84030 -117.93598 3591 ft 258 kts 82°
2026-04-26 03:50 33.84320 -117.91472 3591 ft 257 kts 81°
2026-04-26 03:51 33.84628 -117.89344 3588 ft 259 kts 80°
2026-04-26 03:51 33.85312 -117.87378 3580 ft 257 kts 45°
2026-04-26 03:51 33.86790 -117.86257 3583 ft 251 kts
2026-04-26 03:51 33.88468 -117.86432 3585 ft 242 kts 328°
2026-04-26 03:52 33.89816 -117.87582 3606 ft 240 kts 316°
2026-04-26 03:52 33.91035 -117.88926 3590 ft 237 kts 314°
2026-04-26 03:52 33.92220 -117.90327 3592 ft 238 kts 312°
2026-04-26 03:52 33.93392 -117.91745 3593 ft 238 kts 309°
2026-04-26 03:53 33.94214 -117.93462 3593 ft 238 kts 294°
2026-04-26 03:53 33.95146 -117.95116 3593 ft 239 kts 302°
2026-04-26 03:53 33.95966 -117.96804 3584 ft 235 kts 295°
2026-04-26 03:53 33.96687 -117.98583 3586 ft 236 kts 292°
2026-04-26 03:54 33.97056 -118.00470 3601 ft 232 kts 270°
2026-04-26 03:54 33.97057 -118.02434 3600 ft 232 kts 268°
2026-04-26 03:54 33.97027 -118.04270 3585 ft 205 kts 268°
2026-04-26 03:54 33.96979 -118.05869 3594 ft 180 kts 266°
2026-04-26 03:55 33.96887 -118.07361 3587 ft 179 kts 264°
2026-04-26 03:55 33.96748 -118.08836 3585 ft 175 kts 263°
2026-04-26 03:55 33.96597 -118.10261 3583 ft 174 kts 263°
2026-04-26 03:55 33.96443 -118.11716 3587 ft 176 kts 263°
2026-04-26 03:56 33.96289 -118.13173 3585 ft 175 kts 263°
2026-04-26 03:56 33.96140 -118.14629 3589 ft 176 kts 263°
2026-04-26 03:56 33.95990 -118.16089 3582 ft 174 kts 263°
2026-04-26 03:56 33.95840 -118.17548 3600 ft 177 kts 263°
2026-04-26 03:57 33.95694 -118.19033 3303 ft 178 kts 263°
2026-04-26 03:57 33.95546 -118.20516 3017 ft 178 kts 263°
2026-04-26 03:57 33.95394 -118.21979 2835 ft 178 kts 263°
2026-04-26 03:57 33.95245 -118.23447 2628 ft 173 kts 263°
2026-04-26 03:58 33.95098 -118.24886 2358 ft 173 kts 263°
2026-04-26 03:58 33.94954 -118.26314 2125 ft 170 kts 263°
2026-04-26 03:58 33.94809 -118.27739 1896 ft 170 kts 262°
2026-04-26 03:58 33.94670 -118.29134 1660 ft 158 kts 262°
2026-04-26 03:59 33.94539 -118.30388 1469 ft 150 kts 263°
2026-04-26 03:59 33.94397 -118.31610 1191 ft 149 kts 260°
2026-04-26 03:59 33.94245 -118.32824 1019 ft 143 kts 261°
2026-04-26 03:59 33.94135 -118.33975 760 ft 138 kts 262°
2026-04-26 04:00 33.94031 -118.35156 717 ft 137 kts 261°
2026-04-26 04:00 33.93921 -118.36307 445 ft 146 kts 261°
2026-04-26 04:00 33.93796 -118.37534 345 ft 144 kts 261°
2026-04-26 04:00 33.93696 -118.38705 128 ft 130 kts 259°
2026-04-26 04:01 33.93611 -118.39473 126 ft 55 kts 265°
2026-04-26 04:01 33.93603 -118.39729 126 ft 18 kts 276°
2026-04-26 04:01 33.93628 -118.39859 125 ft 13 kts 290°
2026-04-26 04:01 33.93652 -118.39940 125 ft 8 kts 291°
2026-04-26 04:02 33.93665 -118.40046 125 ft 19 kts 268°
2026-04-26 04:02 33.93659 -118.40120 126 ft 10 kts 264°
2026-04-26 04:02 33.93646 -118.40244 126 ft 15 kts 262°
2026-04-26 04:02 33.93651 -118.40323 126 ft 0 kts 288°
2026-04-26 04:03 33.93662 -118.40356 123 ft 10 kts 293°
2026-04-26 04:03 33.93738 -118.40422 122 ft 13 kts 351°
2026-04-26 04:04 33.93813 -118.40433 124 ft 9 kts 350°
2026-04-26 04:04 33.93829 -118.40455 124 ft 0 kts 284°
2026-04-26 04:06 33.93830 -118.40461 124 ft 1 kts 276°
2026-04-26 04:06 33.93830 -118.40463 125 ft 0 kts 274°
2026-04-26 04:06 33.93828 -118.40492 125 ft 9 kts 266°
2026-04-26 04:07 33.93820 -118.40584 124 ft 12 kts 263°
2026-04-26 04:07 33.93810 -118.40678 123 ft 8 kts 262°
2026-04-26 04:07 33.93826 -118.40724 126 ft 5 kts 320°
2026-04-26 04:07 33.93855 -118.40742 122 ft 5 kts 329°
2026-04-26 04:08 33.93887 -118.40780 123 ft 6 kts 313°
2026-04-26 04:08 33.93911 -118.40803 126 ft 3 kts 333°
2026-04-26 04:08 33.93936 -118.40810 124 ft 6 kts 350°
2026-04-26 04:08 33.93975 -118.40775 125 ft 10 kts 77°
2026-04-26 04:09 33.93978 -118.40749 126 ft 2 kts 84°
2026-04-26 04:09 33.93979 -118.40733 126 ft 3 kts 82°
2026-04-26 04:09 33.93980 -118.40729 126 ft 0 kts 82°